AirNav   Everest Fuels
 
 1069 users online  

3UT6 Riverton Hospital Heliport
Riverton, Utah, USA

GOING TO RIVERTON?


FAA INFORMATION EFFECTIVE 21 MAY 2020

Location

FAA Identifier: 3UT6
Lat/Long: 40-31-12.0700N 111-58-53.8200W
40-31.201167N 111-58.897000W
40.5200194,-111.9816167
(estimated)
Elevation: 4638 ft. / 1414 m (estimated)
From city: 2 miles E of RIVERTON, UT
Time zone: UTC -6 (UTC -7 during Standard Time)
Zip code: 84065

Heliport Operations

Heliport use: Private use. Permission required prior to landing
Activation date: 04/2012
Control tower: no
ARTCC: SALT LAKE CITY CENTER
FSS: CEDAR CITY FLIGHT SERVICE STATION
Attendance: UNATNDD
Wind indicator: yes
Segmented circle: no

Heliport Communications

WX AWOS-3 at U42 (6 nm N): 134.425 (801-562-0271)
WX ASOS at SLC (16 nm N): 125.625 (801-328-3567)
WX AWOS-3 at TVY (18 nm W): 119.725 (435-882-6648)

Nearby radio navigation aids

VOR radial/distance  VOR name  Freq  Var
FFUr337/14.8FAIRFIELD VORTAC116.6016E
TCHr164/19.8WASATCH VORTAC116.8016E
PVUr312/21.8PROVO VOR/DME108.4015E

Heliport Services

Runway Information

Helipad H1

Dimensions: 40 x 40 ft. / 12 x 12 m
Surface: concrete
Latitude: 40-31.201167N
Longitude: 111-58.897000W
Elevation: 4638.0 ft.
Traffic pattern: leftleft
Obstructions: bldg
70 FT BLDG 250 FT EAST OF PAD.

Heliport Ownership and Management from official FAA records

Ownership: Privately-owned
Owner: IHC HEALTH SERVICES INC
36 SOUTH STATE ST
SALT LAKE CITY, UT 84111
Phone 801-442-2000
Manager: KENT JOHNSON
250 N 2370 W
SALT LAKE CITY, UT 84116
Phone (801) 321-3362

Additional Remarks

FOR CD CTC SALT LAKE CITY APCH AT 801-325-9670.

Instrument Procedures

There are no published instrument procedures at 3UT6.

Some nearby airports with instrument procedures:

U42 - South Valley Regional Airport (6 nm N)
KSLC - Salt Lake City International Airport (16 nm N)
KTVY - Bolinder Field-Tooele Valley Airport (18 nm W)
KPVU - Provo Municipal Airport (22 nm SE)
KHCR - Heber Valley Airport (25 nm E)
 
Loc | Ops | Rwys | IFR | FBO | Links
Com | Nav | Svcs | Stats | Notes
Aerial photo
No photo
 
Airport distance calculator
Flying to Riverton Hospital Heliport? Find the distance to fly.

From to 3UT6

Sunrise and sunset
Times for 06-Jun-2020
 Local
(UTC-6)
 Zulu
(UTC)
Morning civil twilight05:2611:26
Sunrise05:5911:59
Sunset20:5502:55
Evening civil twilight21:2803:28

Current date and time
Zulu (UTC)  06-Jun-2020 15:21:19
Local (UTC-6)  06-Jun-2020 09:21:19
 
METAR
KU42 
6nm N 
061455Z AUTO 19014G17KT 10SM CLR 18/11 A2973 RMK AO1 60002 T01820108
KSLC 
16nm N 
061454Z 10011KT 10SM SCT085 BKN180 18/11 A2969 RMK AO2 SLP995 60000 T01780106 58004
KTVY 
18nm W 
061455Z AUTO 19021G29KT 10SM CLR 25/05 A2965 RMK AO2 LTG DSNT NE
TAF
KSLC 
16nm N 
061258Z 0613/0718 16018G28KT P6SM -SHRA SCT060 BKN080 FM061600 16020G30KT P6SM VCSH SCT060 BKN100 FM062000 32012G20KT P6SM VCTS SCT040 BKN080CB FM070100 15010KT P6SM -SHRA SCT040 BKN080 FM070900 16011KT P6SM VCSH SCT060 BKN120
NOTAMs
Click for the latest NOTAMs
NOTAMs are issued by the DoD/FAA and will open in a separate window not controlled by AirNav.

 

 
 

Would you like to see your business listed on this page?

 If your business provides an interesting product or service to pilots, flight crews, aircraft, or users of the Riverton Hospital Heliport, you should consider listing it here.  To start the listing process, click on the button below
 
Add a business
 

Other Pages about Riverton Hospital Heliport

Update a link
 
Copyright © AirNav, LLC. All rights reserved. Privacy Policy  Contact